Weather History for Clinton-Sherman, OK

Change the Weather History Date:

Saturday, November 12, 2011

  Actual Average Record
Temperature  
Mean Temperature 60 °F -  
Max Temperature 71 °F 58 °F 81 °F (1999)
Min Temperature 48 °F 40 °F 25 °F (2013)
Degree Days  
Heating Degree Days 6    
Growing Degree Days 10 (Base 50)    
Moisture  
Dew Point 36 °F    
Average Humidity 45    
Maximum Humidity 58    
Minimum Humidity 33    
Precipitation  
Precipitation 0.00 in - - ()
Sea Level Pressure  
Sea Level Pressure 29.68 in    
Wind  
Wind Speed 21 mph (SSW)    
Max Wind Speed 29 mph    
Max Gust Speed 33 mph    
Visibility 10 miles    
Events      
Averages and records for this station are not official NWS values.
T = Trace of Precipitation, MM = Missing Value Source: NWS Daily Summary

Daily Weather History Graph

Daily Weather History Graph

Search for Another Location

Airport:

Trip Planner

Search our weather history database for the weather conditions in past years. The results will help you decide how hot, cold, wet, or windy it might be!

Date:

Astronomy

Nov. 12, 2011 Rise Set
Actual Time 7:08 AM CST 5:32 PM CST
Civil Twilight 6:41 AM CST 5:59 PM CST
Nautical Twilight 6:11 AM CST 6:30 PM CST
Astronomical Twilight 5:41 AM CST 7:00 PM CST
Moon 6:53 PM CST (11/12) 8:48 AM CST (11/12)
Length of Visible Light 11h 17m
Length of Day
10h 23m
Full, 97% of the Moon is Illuminated
Nov 12
Full
Nov 18
Last Quarter
Nov 25
New
Dec 2
First Quarter
Dec 10
Full

Hourly Weather History & Observations

Time (CST) Temp. Dew Point Humidity Pressure Visibility Wind Dir Wind Speed Gust Speed Precip Events Conditions
12:53 AM 48.9 °F 34.0 °F 56% 29.79 in 10.0 mi South 17.3 mph - N/A   Clear
1:53 AM 50.0 °F 34.0 °F 54% 29.75 in 10.0 mi South 23.0 mph - N/A   Clear
2:53 AM 50.0 °F 33.1 °F 52% 29.73 in 10.0 mi South 21.9 mph - N/A   Clear
3:53 AM 48.9 °F 33.1 °F 54% 29.71 in 10.0 mi South 26.5 mph - N/A   Clear
4:53 AM 48.9 °F 33.1 °F 54% 29.69 in 10.0 mi South 25.3 mph - N/A   Clear
5:53 AM 48.0 °F 34.0 °F 58% 29.71 in 10.0 mi South 21.9 mph - N/A   Clear
6:53 AM 48.9 °F 34.0 °F 56% 29.68 in 10.0 mi South 26.5 mph 31.1 mph N/A   Clear
7:53 AM 48.9 °F 34.0 °F 56% 29.68 in 10.0 mi South 28.8 mph 33.4 mph N/A   Clear
8:53 AM 52.0 °F 35.1 °F 53% 29.70 in 10.0 mi SW 21.9 mph 31.1 mph N/A   Clear
9:53 AM 54.0 °F 36.0 °F 51% 29.70 in 10.0 mi SSW 24.2 mph - N/A   Clear
10:53 AM 59.0 °F 39.0 °F 48% 29.69 in 10.0 mi SSW 20.7 mph - N/A   Clear
11:53 AM 63.0 °F 37.0 °F 38% 29.68 in 10.0 mi SSW 24.2 mph 28.8 mph N/A   Clear
12:53 PM 64.0 °F 39.0 °F 40% 29.66 in 10.0 mi South 18.4 mph - N/A   Clear
1:53 PM 64.9 °F 39.9 °F 40% 29.64 in 10.0 mi South 19.6 mph - N/A   Clear
2:53 PM 70.0 °F 41.0 °F 35% 29.62 in 10.0 mi South 19.6 mph - N/A   Clear
3:53 PM 71.1 °F 42.1 °F 35% 29.62 in 10.0 mi South 19.6 mph - N/A   Clear
4:53 PM 66.0 °F 42.1 °F 42% 29.63 in 10.0 mi South 13.8 mph - N/A   Clear
5:53 PM 63.0 °F 39.0 °F 41% 29.64 in 10.0 mi South 12.7 mph - N/A   Clear
6:53 PM 62.1 °F 36.0 °F 38% 29.65 in 10.0 mi South 13.8 mph - N/A   Clear
7:53 PM 61.0 °F 32.0 °F 34% 29.66 in 10.0 mi SSW 15.0 mph - N/A   Clear
8:53 PM 60.1 °F 32.0 °F 35% 29.66 in 10.0 mi SSW 17.3 mph - N/A   Clear
9:53 PM 60.1 °F 30.9 °F 33% 29.65 in 10.0 mi SSW 18.4 mph - N/A   Clear
10:53 PM 59.0 °F 32.0 °F 36% 29.63 in 10.0 mi SSW 17.3 mph - N/A   Clear
11:53 PM 55.0 °F 35.1 °F 47% 29.64 in 10.0 mi SSW 12.7 mph - N/A   Clear